This demonstration page uses our WeatherBlox Daily Observations layout. Learn more.

Left ArrowRight Arrow

Hourly Observations for August 16, 2019

Temp ( °F °C ) Dew Point ( °F °C ) Humidity (%) Winds ( mph kmh ) Pressure ( in mb ) Visibility ( mi km ) Precip ( " mm )
12:15 am 00:15 Clear 64 17.5 64 17.5 100 100 Calm 30.00 1016 10 16 0.00 0.00
12:35 am 00:35 Clear 63 17 63 17 100 100 Calm 30.02 1016 10 16 0.00 0.00
12:55 am 00:55 Clear 61 16.2 61 16.2 100 100 Calm 30.02 1017 10 16 0.00 0.00
1:15 am 01:15 Clear 61 16.1 61 16.1 100 100 Calm 30.02 1017 10 16 0.00 0.00
1:35 am 01:35 Clear 61 16 61 16 100 100 Calm 30.02 1017 10 16 0.00 0.00
1:55 am 01:55 Clear 61 16 61 16 100 100 Calm 30.02 1017 10 16 0.00 0.00
2:15 am 02:15 Clear 59 15.1 59 15.1 100 100 Calm 30.02 1017 7 11 0.00 0.00
2:35 am 02:35 Clear 59 14.8 59 14.8 100 100 Calm 30.02 1017 7 11 0.00 0.00
2:55 am 02:55 Clear 59 15 59 15 100 100 Calm 30.02 1017 10 16 0.00 0.00
3:15 am 03:15 Clear 59 14.9 59 14.9 100 100 Calm 30.01 1016 10 16 0.00 0.00
3:35 am 03:35 Clear 59 14.9 59 14.9 100 100 Calm 30.00 1016 7 11 0.00 0.00
3:55 am 03:55 Clear 58 14.3 58 14.3 100 100 Calm 30.00 1016 7 11 0.00 0.00
4:15 am 04:15 Clear 57 14 57 14 100 100 Calm 29.99 1015 7 11 0.00 0.00
4:35 am 04:35 Clear 57 14 57 14 100 100 SSW 3 6 29.99 1015 7 11 0.00 0.00
4:55 am 04:55 Clear 58 14.2 58 14.2 100 100 Calm 30.00 1016 7 11 0.00 0.00
5:15 am 05:15 Clear 57 13.9 57 13.9 100 100 Calm 30.00 1016 10 16 0.00 0.00
5:35 am 05:35 Clear 57 13.9 57 13.9 100 100 Calm 30.00 1016 7 11 0.00 0.00
5:55 am 05:55 Clear 57 13.9 57 13.9 100 100 Calm 30.00 1016 7 11 0.00 0.00
6:15 am 06:15 Clear with Mist and Fog 57 14 57 14 100 100 Calm 29.99 1015 5 8 0.00 0.00
6:35 am 06:35 Clear with Mist and Fog 57 14.1 57 14.1 100 100 Calm 30.00 1016 4 6 0.00 0.00
6:55 am 06:55 Clear with Mist and Fog 58 14.5 58 14.5 100 100 Calm 30.00 1016 4 6 0.00 0.00
7:15 am 07:15 Sunny with Mist and Fog 58 14.5 58 14.5 100 100 Calm 30.00 1016 5 8 0.00 0.00
7:35 am 07:35 Sunny with Mist and Fog 58 14.6 58 14.6 100 100 Calm 30.00 1016 5 8 0.00 0.00
7:55 am 07:55 Sunny with Mist and Fog 60 15.3 60 15.3 100 100 Calm 30.01 1016 5 8 0.00 0.00
8:15 am 08:15 Partly Cloudy 61 16.1 61 16.1 100 100 Calm 30.01 1016 7 11 0.00 0.00
8:35 am 08:35 Mostly Cloudy 63 17 63 17 100 100 Calm 30.00 1016 7 11 0.00 0.00
8:55 am 08:55 Partly Cloudy 65 18.3 65 18.3 100 100 SSE 3 6 29.99 1016 10 16 0.00 0.00
9:15 am 09:15 Sunny 67 19.4 67 19.4 100 100 SSE 5 7 29.99 1016 10 16 0.00 0.00
9:35 am 09:35 Sunny 69 20.3 68 19.8 97 97 S 3 6 30.00 1016 10 16 0.00 0.00
9:55 am 09:55 Sunny 70 20.9 68 20 95 95 S 7 11 29.99 1016 10 16 0.00 0.00
10:15 am 10:15 Sunny 71 21.6 68 19.9 90 90 S 7 11 30.00 1016 10 16 0.00 0.00
10:35 am 10:35 Sunny 72 22 67 19.7 87 87 S 8 13 30.00 1016 10 16 0.00 0.00
10:55 am 10:55 Partly Cloudy 73 22.6 67 19.6 83 83 S 9 15 30.00 1016 10 16 0.00 0.00
11:15 am 11:15 Mostly Cloudy 73 23 68 19.8 82 82 SSW 12 19 30.01 1016 10 16 0.00 0.00
11:35 am 11:35 Mostly Cloudy 72 22.4 67 19.7 85 85 S 8 13 30.00 1016 10 16 0.00 0.00
11:55 am 11:55 Cloudy 74 23.4 67 19.3 78 78 SSW 10 17 30.00 1016 10 16 0.00 0.00
12:15 pm 12:15 Cloudy 74 23.2 67 19.3 79 79 SSW 9 15 30.00 1016 10 16 0.00 0.00
12:35 pm 12:35 Partly Cloudy 74 23.4 67 19.3 78 78 SSW 9 15 29.99 1015 10 16 0.00 0.00
12:55 pm 12:55 Partly Cloudy 75 23.8 65 18.5 72 72 SSW 12 19 29.97 1015 10 16 0.00 0.00
1:15 pm 13:15 Partly Cloudy 75 23.8 66 19 75 75 S 13 20 29.96 1015 10 16 0.00 0.00
1:35 pm 13:35 Mostly Cloudy 74 23.5 66 18.8 75 75 S 9 15 29.97 1015 10 16 0.00 0.00
1:55 pm 13:55 Mostly Cloudy 75 23.8 68 19.9 79 79 SSW 10 17 29.96 1015 10 16 0.00 0.00
2:15 pm 14:15 Mostly Cloudy 75 24 69 20.3 80 80 SW 9 15 29.96 1015 10 16 0.00 0.00
2:35 pm 14:35 Mostly Cloudy 75 23.7 67 19.5 77 77 SSW 8 13 29.96 1015 10 16 0.00 0.00
2:55 pm 14:55 Mostly Cloudy 76 24.4 69 20.7 80 80 S 7 11 29.96 1015 10 16 0.00 0.00
3:15 pm 15:15 Mostly Cloudy 76 24.6 68 19.9 75 75 S 8 13 29.95 1014 10 16 0.00 0.00
3:35 pm 15:35 Mostly Cloudy 77 24.8 67 19.4 72 72 SSW 9 15 29.94 1014 10 16 0.00 0.00
3:55 pm 15:55 Cloudy 76 24.5 68 19.9 76 76 S 7 11 29.93 1014 10 16 0.00 0.00
4:15 pm 16:15 Partly Cloudy 78 25.4 69 20.3 73 73 S 8 13 29.92 1013 10 16 0.00 0.00
4:35 pm 16:35 Sunny 77 25.2 68 20.1 73 73 S 13 20 29.92 1013 10 16 0.00 0.00
4:55 pm 16:55 Partly Cloudy 77 25 69 20.7 77 77 S 9 15 29.91 1013 10 16 0.00 0.00
5:15 pm 17:15 Partly Cloudy 78 25.3 69 20.6 75 75 SSW 10 17 29.90 1012 10 16 0.00 0.00
5:35 pm 17:35 Sunny 78 25.3 69 20.6 75 75 SSW 12 19 29.90 1012 10 16 0.00 0.00
5:55 pm 17:55 Sunny 78 25.8 69 20.8 74 74 S 12 19 29.90 1012 10 16 0.00 0.00
6:15 pm 18:15 Partly Cloudy 77 25.1 70 20.9 78 78 SSW 13 20 29.90 1013 10 16 0.00 0.00
6:35 pm 18:35 Partly Cloudy 77 25.1 70 21 78 78 S 10 17 29.90 1013 10 16 0.00 0.00
6:55 pm 18:55 Partly Cloudy 77 25 70 21.2 80 80 SW 8 13 29.90 1013 10 16 0.00 0.00
7:15 pm 19:15 Partly Cloudy 76 24.7 70 21.2 81 81 SW 8 13 29.90 1013 10 16 0.00 0.00
7:35 pm 19:35 Partly Cloudy 76 24.5 70 21 81 81 SW 9 15 29.91 1013 10 16 0.00 0.00
7:55 pm 19:55 Mostly Cloudy 76 24.5 70 21.3 82 82 SW 7 11 29.91 1013 10 16 0.00 0.00
8:15 pm 20:15 Partly Cloudy 75 24 71 21.6 87 87 SW 6 9 29.90 1013 10 16 0.00 0.00
8:35 pm 20:35 Sunny 75 23.8 71 21.5 87 87 SSW 7 11 29.90 1013 10 16 0.00 0.00
8:55 pm 20:55 Clear 74 23.5 71 21.6 89 89 SW 8 13 29.90 1013 10 16 0.00 0.00
9:15 pm 21:15 Clear 73 23 71 21.7 92 92 SSW 6 9 29.91 1013 10 16 0.00 0.00
9:35 pm 21:35 Clear 73 22.9 71 21.8 94 94 SSW 6 9 29.92 1013 10 16 0.00 0.00
9:55 pm 21:55 Clear 72 22.1 72 22 99 99 SSW 7 11 29.92 1013 10 16 0.00 0.00
10:15 pm 22:15 Clear 72 22.3 72 22 98 98 SW 6 9 29.92 1013 10 16 0.00 0.00
10:35 pm 22:35 Clear 71 21.5 71 21.5 100 100 SSW 6 9 29.93 1014 10 16 0.00 0.00
10:55 pm 22:55 Mostly Cloudy 72 22 72 22 100 100 SSW 6 9 29.93 1014 10 16 0.00 0.00
11:15 pm 23:15 Mostly Cloudy 72 22.1 72 22.1 100 100 SSW 6 9 29.92 1013 10 16 0.00 0.00
11:35 pm 23:35 Clear 70 21.3 70 21.3 100 100 SSW 6 9 29.92 1013 10 16 0.00 0.00
11:55 pm 23:55 Clear 71 21.5 71 21.5 100 100 SSW 5 7 29.92 1013 10 16 0.00 0.00

Powered by AerisWeather